This is the latest recevied weather packets stored in our database for station/object DG7YEO-13. If no packets are shown the sender has not sent any weather packets the latest 10 day(s).
| Time | Temp. | Humidity | Pressure | Rain* | Wind** | Luminosity | Snow |
|---|---|---|---|---|---|---|---|
| 1777572125 | 18.33° C | 36% | 1026.6 hPa | 0 mm | - | - | - |
| 1777571225 | 18.89° C | 35% | 1026.7 hPa | 0 mm | - | - | - |
| 1777570325 | 18.89° C | 34% | 1026.7 hPa | 0 mm | - | - | - |
| 1777569425 | 19.44° C | 34% | 1026.8 hPa | 0 mm | - | - | - |
| 1777568526 | 19.44° C | 33% | 1026.7 hPa | 0 mm | - | - | - |
| 1777567625 | 19.44° C | 32% | 1026.8 hPa | 0 mm | - | - | - |
| 1777566725 | 20° C | 32% | 1027 hPa | 0 mm | - | - | - |
| 1777565825 | 20° C | 31% | 1027.1 hPa | 0 mm | - | - | - |
| 1777564925 | 20° C | 30% | 1027 hPa | 0 mm | - | - | - |
| 1777564025 | 20° C | 29% | 1027.1 hPa | 0 mm | - | - | - |
| 1777563125 | 20° C | 29% | 1027.2 hPa | 0 mm | - | - | - |
| 1777562225 | 20° C | 28% | 1027.4 hPa | 0 mm | - | - | - |
| 1777561325 | 20.56° C | 28% | 1027.3 hPa | 0 mm | - | - | - |
| 1777560425 | 20.56° C | 27% | 1027.4 hPa | 0 mm | - | - | - |
| 1777559525 | 20° C | 27% | 1027.5 hPa | 0 mm | - | - | - |
| 1777558625 | 20° C | 27% | 1027.6 hPa | 0 mm | - | - | - |
| 1777557725 | 20° C | 27% | 1027.8 hPa | 0 mm | - | - | - |
| 1777556825 | 19.44° C | 26% | 1028.1 hPa | 0 mm | - | - | - |
| 1777555925 | 19.44° C | 27% | 1028.1 hPa | 0 mm | - | - | - |
| 1777555025 | 19.44° C | 27% | 1028.3 hPa | 0 mm | - | - | - |
| 1777554125 | 18.89° C | 26% | 1028.4 hPa | 0 mm | - | - | - |
| 1777553225 | 18.89° C | 26% | 1028.7 hPa | 0 mm | - | - | - |
| 1777552325 | 18.89° C | 26% | 1028.8 hPa | 0 mm | - | - | - |
| 1777551425 | 18.89° C | 27% | 1028.8 hPa | 0 mm | - | - | - |
| 1777550525 | 18.89° C | 26% | 1028.9 hPa | 0 mm | - | - | - |
* Rain latest hour (hover to see other rain measurements)
** Current wind speed in m/s (hover to see current wind gust speed)